SCP
0 0 0 0 0 0 0 0 0 0 0 1 1 1 0 0 0 0 0 0 0 0 0 0 0 0 0 0 0 0 0 0 0 0 0 0 0 0 0 0 0 0 0
0 0 0 0 0 0 0 0 0 0 0 0 1 2 1 1 1 1 1 1 1 1 0 0 0 0 0 0 0 0 0 0 0 0 0 0 0 0 0 0 0 0 0
-0 -0 0 0 0 0 0 0 0 0 0 0 0 0 0 0 0 1 2 1 1 1 1 0 0 0 0 0 0 0 0 0 0 0 0 0 0 0 0 0 0 0 0
0 -0 -0 0 0 0 0 0 0 0 0 0 0 0 1 1 1 1 1 1 1 1 1 1 1 0 0 0 0 0 0 0 0 0 0 0 0 0 0 0 0 0 0
0 0 0 0 0 0 0 0 0 0 0 0 0 0 0 0 1 0 1 1 1 1 1 1 1 0 0 0 0 0 0 0 0 0 0 0 0 0 0 0 0 0 0
0 0 0 0 0 0 0 -0 0 0 0 0 0 0 1 1 0 0 0 0 0 0 1 1 1 1 1 0 0 0 0 0 0 0 0 0 0 0 0 0 0 0 0
0 0 0 0 0 0 0 0 -0 0 0 0 0 0 0 1 0 0 0 0 0 0 1 1 1 1 1 1 0 0 0 0 0 0 0 0 0 0 0 0 0 0 0
0 0 0 0 0 0 0 0 0 0 0 0 0 0 0 1 0 0 0 0 0 0 1 1 1 1 1 0 0 0 0 0 0 0 0 0 0 0 0 0 0 0 0
0 0 0 -0 -0 0 0 0 0 0 0 0 0 0 0 0 0 0 0 0 0 0 1 1 1 1 1 1 0 0 0 0 0 0 0 0 0 0 0 0 0 0 0
0 0 0 0 0 0 0 0 0 0 0 0 0 0 0 0 0 0 0 0 0 1 1 1 1 1 1 0 0 0 0 0 0 0 0 0 0 0 0 0 0 0 0
0 0 0 0 0 0 0 0 0 0 0 0 0 0 0 0 0 0 0 0 0 1 1 1 1 1 1 0 0 0 0 0 0 0 0 0 0 0 0 0 0 0 0
0 0 -0 -0 -0 0 0 0 0 0 0 0 0 0 0 0 0 0 0 0 1 1 1 1 1 1 1 0 0 0 0 0 0 0 0 0 0 0 0 0 0 0 0
0 0 0 -0 -0 0 0 0 0 0 0 0 0 0 0 0 0 0 0 1 1 1 1 1 1 1 0 0 0 0 0 0 0 0 0 0 0 0 0 0 0 0 0
-0 -0 -0 -0 -0 -0 0 0 0 0 0 0 0 0 0 0 1 1 1 1 1 1 1 1 1 0 0 0 0 0 0 0 0 0 0 0 0 0 0 0 0 0 0
-0 -0 -0 -0 -0 -0 0 0 0 0 0 1 1 1 1 1 1 1 1 1 1 1 1 1 1 0 0 0 0 0 0 0 0 0 0 0 0 0 0 0 0 0 0
-0 0 -0 -0 -0 -0 0 0 0 0 0 2 1 2 2 2 2 1 1 1 1 1 1 1 0 0 0 0 0 0 0 0 0 0 0 0 0 0 0 0 0 0 0
0 0 -0 -0 -0 0 0 0 0 0 0 2 2 2 2 2 1 1 1 1 1 0 0 0 0 0 0 0 0 0 0 0 0 0 0 0 0 0 0 0 0 0 0
0 -0 0 0 -0 -0 -0 0 0 0 0 2 1 1 1 2 1 1 1 0 0 0 0 0 0 0 0 0 0 0 0 0 0 0 0 0 0 0 0 0 0 0 0
-0 -0 0 0 0 0 0 0 0 0 0 1 1 1 1 1 1 0 0 0 0 0 0 0 0 0 0 0 0 0 0 0 0 0 0 0 0 0 0 0 0 0 0
-0 0 -0 0 0 0 0 0 0 0 0 0 1 1 1 1 0 0 0 0 0 0 0 0 0 0 0 0 0 0 0 0 0 0 0 0 0 0 0 0 0 0 0
-0 -0 -0 0 0 0 0 0 0 0 0 1 1 1 0 0 0 0 0 0 0 0 0 0 0 0 0 0 0 0 0 0 0 0 0 0 -0 -0 0 0 -0 0 0
-0 -0 -0 -0 -0 -0 0 0 0 0 0 1 1 0 0 0 0 0 0 0 0 0 0 0 0 0 0 0 0 0 0 0 0 0 0 0 -0 0 0 0 -0 -0 0
-0 -0 -0 -0 -0 -0 -0 0 0 0 0 1 0 0 0 0 0 0 0 0 0 0 0 0 0 0 0 0 0 0 0 0 0 0 0 -0 0 0 0 0 -0 -0 0
-0 -0 -0 -0 -0 0 0 0 0 0 0 0 0 0 0 0 0 0 0 0 0 0 0 0 0 0 0 0 0 0 0 0 0 0 0 0 0 0 0 0 0 0 0
-0 -0 -0 -0 -0 -0 0 0 0 0 0 0 0 0 0 0 0 0 0 0 0 0 0 0 0 0 0 0 0 0 0 0 0 0 0 0 0 0 0 0 0 0 0
-0 -0 -0 -0 -0 0 0 0 0 0 0 0 0 0 0 0 0 0 0 0 0 0 0 0 0 0 0 -0 -0 0 -0 -0 -0 0 0 0 0 0 0 0 0 0 0
Wind_Speed_500mb
21 22 20 17 18 15 38 41 52 57 57 59 68 84 93 100 100 90 78 67 63 62 52 50 49 51 46 43 44 43 43 41 38 35 35 34 35 36 37 40 38 37 39
34 36 34 29 27 28 22 39 48 54 68 71 66 72 87 99 98 94 82 75 84 73 61 49 50 53 51 46 47 42 41 39 37 36 33 34 38 38 35 37 40 40 43
60 49 45 44 39 39 38 30 32 49 64 71 78 81 83 92 92 93 93 85 80 72 59 51 52 59 55 51 48 42 39 38 36 34 31 13 18 10 19 25 28 34 36
35 37 36 35 40 45 42 39 38 36 42 66 75 83 88 92 97 110 100 84 79 68 53 55 58 60 58 56 51 43 38 38 39 38 42 48 32 12 7 18 25 24 17
37 42 41 41 40 44 47 47 47 46 45 42 64 81 89 91 81 99 98 92 84 64 54 59 63 61 63 56 52 47 42 39 41 41 40 43 46 44 43 37 31 30 23
37 40 44 47 51 50 50 49 52 56 54 50 49 68 80 89 90 94 99 98 83 62 61 64 62 61 63 61 53 47 43 39 40 35 39 42 40 41 45 42 38 33 28
47 48 60 68 68 65 54 52 52 60 63 60 51 56 76 79 82 91 102 106 88 71 69 68 60 57 57 53 45 44 41 41 36 35 35 35 34 32 34 32 28 23 25
55 59 66 68 73 74 56 52 52 59 60 66 60 57 59 80 92 89 93 98 81 69 66 60 52 47 41 43 40 40 39 38 38 33 31 31 31 32 28 25 20 22 20
67 69 65 65 73 73 54 46 48 58 59 66 66 62 56 60 73 69 65 69 66 70 66 54 47 36 36 38 38 39 36 36 35 31 31 26 24 25 26 24 20 21 17
79 68 55 65 65 58 44 49 41 52 59 63 67 64 60 52 56 58 57 61 69 73 62 52 43 37 38 40 38 36 32 33 34 35 29 26 24 26 27 23 22 23 19
71 49 53 59 63 57 50 50 42 46 56 60 66 66 68 58 62 63 62 64 65 57 53 52 46 43 43 42 31 35 35 33 36 33 29 25 26 28 26 23 24 22 19
52 40 47 56 59 68 49 51 48 51 45 55 63 68 72 68 68 70 70 66 59 53 50 51 49 47 45 37 40 39 35 33 33 30 28 27 29 29 25 24 23 21 20
47 41 47 58 65 66 56 48 64 58 41 45 59 63 73 72 74 72 68 62 58 52 53 51 51 49 43 40 40 36 35 31 27 25 25 27 30 28 26 24 24 23 22
48 58 54 54 66 64 73 56 62 62 38 43 56 57 67 68 71 71 65 60 54 54 54 51 50 46 38 41 39 36 31 27 25 23 23 27 28 28 27 28 25 24 26
56 44 54 62 67 66 77 70 59 63 42 36 45 43 55 62 59 57 57 52 51 50 49 50 50 46 47 38 36 31 29 28 25 23 23 26 27 28 29 29 28 28 29
48 46 64 74 70 68 79 77 59 62 41 26 28 40 45 48 50 52 49 47 48 51 52 51 52 54 47 36 32 29 29 27 25 26 26 30 31 32 34 33 31 27 30
41 52 66 76 71 63 68 78 64 60 36 26 23 37 43 46 46 46 46 48 51 53 54 56 56 52 40 35 32 30 25 24 26 30 30 29 29 29 26 32 34 31 31
52 71 75 85 71 69 68 71 55 55 26 26 34 44 46 42 43 46 56 55 57 59 60 57 49 43 39 34 31 24 23 25 27 24 23 19 25 23 27 30 35 32 31
83 83 81 80 72 65 53 50 49 45 22 30 46 50 46 44 47 58 60 63 65 66 57 52 43 39 36 33 24 23 23 22 19 18 19 23 24 27 27 24 26 36 35
78 73 81 78 68 56 44 51 46 39 30 34 50 51 49 50 56 64 69 61 67 58 57 47 41 37 31 26 23 22 21 19 17 15 17 23 22 20 21 26 28 33 34
75 73 70 67 62 50 47 49 45 40 31 35 55 54 54 60 64 66 67 69 67 58 50 47 41 32 25 22 24 21 18 14 14 16 18 23 25 22 18 21 21 20 25
72 69 71 66 54 43 45 48 51 32 8 55 57 56 58 63 73 68 73 69 60 56 52 43 36 28 25 23 19 17 15 14 15 20 19 21 23 20 16 22 28 25 23
72 74 67 60 50 38 39 39 34 30 13 53 54 64 62 70 72 75 73 67 59 51 44 37 32 30 29 23 19 20 17 17 18 22 25 20 18 23 29 26 25 23 23
70 71 66 58 47 29 22 35 32 34 24 44 55 66 75 72 68 67 64 61 52 42 37 33 30 31 29 25 25 24 20 18 23 28 30 28 31 31 30 29 21 16 13
73 65 61 55 49 29 29 22 34 36 40 60 85 80 76 76 72 67 61 46 35 29 25 24 22 28 29 26 23 19 23 24 25 32 39 37 38 38 32 27 18 17 16
65 59 52 46 42 39 35 42 39 42 45 72 82 82 78 70 65 60 54 38 31 26 21 23 16 23 17 25 21 16 22 28 31 33 42 40 42 36 31 23 17 14 15
Wind_Direction_500mb
324 327 329 310 310 293 250 247 262 261 257 262 252 240 238 235 234 236 247 247 256 258 256 262 268 267 275 282 284 280 272 267 260 261 256 249 254 259 253 248 255 260 261
313 317 310 300 292 293 287 245 244 255 259 257 260 258 248 242 238 243 251 254 260 254 255 263 272 273 275 277 281 277 272 266 256 257 261 263 265 262 255 251 260 264 265
309 308 304 301 292 286 289 278 256 240 245 257 259 256 251 248 249 255 264 256 256 250 260 269 274 273 274 273 273 269 267 267 260 253 243 236 236 230 244 249 266 270 268
312 316 317 309 295 287 285 284 277 268 259 243 246 250 252 251 254 256 259 256 259 256 262 271 268 271 273 272 265 257 257 255 250 246 240 242 249 256 255 262 274 269 270
309 316 320 318 315 301 292 286 282 274 272 268 250 245 244 251 253 251 251 257 258 258 257 260 261 267 271 267 261 253 251 246 246 244 242 240 245 252 261 269 265 271 281
315 318 329 331 326 310 301 291 283 272 267 269 264 251 248 245 249 245 246 255 253 251 256 255 260 267 270 261 255 245 244 246 246 237 241 244 248 253 257 257 270 277 272
321 327 331 330 324 323 301 296 288 276 266 264 268 254 244 243 245 248 248 249 249 248 251 254 261 270 270 254 236 239 238 247 229 227 239 244 247 255 256 259 258 256 268
315 322 330 331 330 321 300 294 291 284 275 264 265 260 242 240 242 248 250 252 248 245 251 255 259 267 251 229 228 233 234 233 224 226 228 238 243 241 245 250 250 255 261
319 324 328 335 333 323 302 296 296 286 279 267 262 259 245 241 241 244 243 247 239 243 247 251 258 246 224 222 229 233 214 221 220 224 226 235 232 230 243 247 249 250 267
316 321 325 333 332 322 306 300 297 290 280 270 257 255 243 240 239 234 233 231 235 241 244 240 244 225 221 223 226 204 210 219 215 218 221 226 228 234 239 241 244 252 250
317 322 327 328 334 325 314 306 307 298 276 267 254 249 235 229 235 233 233 235 241 245 238 232 232 222 220 225 222 202 218 210 211 212 220 227 231 235 235 230 238 244 240
321 320 332 327 327 330 318 322 328 318 285 263 250 241 227 226 227 234 239 240 244 241 230 228 222 217 221 220 199 207 210 205 206 217 226 231 232 229 225 224 236 234 235
335 327 322 325 323 327 319 324 332 324 288 257 249 233 221 221 226 233 240 246 238 224 215 217 213 214 217 200 198 210 196 202 212 223 230 233 228 223 226 227 235 229 228
315 313 313 314 324 309 322 310 324 330 295 257 236 221 220 222 226 232 237 225 212 209 209 207 208 211 198 194 201 188 194 203 210 216 223 225 226 231 236 234 234 228 223
316 301 307 312 314 312 312 310 310 326 308 254 227 212 215 215 214 214 206 203 203 204 202 204 200 191 186 190 187 197 203 199 206 218 225 227 231 233 234 231 228 223 217
304 307 317 315 310 316 302 306 303 320 308 248 230 215 197 199 194 193 197 197 196 201 199 194 184 180 181 180 185 189 196 210 224 234 237 238 237 236 235 229 217 220 221
293 310 308 309 302 291 297 303 305 319 297 235 220 206 186 182 188 196 194 191 191 190 186 177 178 174 180 181 187 198 210 227 237 244 245 241 237 234 234 227 217 211 212
292 307 300 303 296 293 293 300 313 311 282 219 200 188 185 187 194 194 182 183 185 176 172 169 173 179 179 187 192 202 221 236 240 238 236 222 222 226 230 225 224 209 205
289 296 293 296 296 290 296 306 303 302 273 223 204 203 201 199 196 191 186 180 170 166 162 166 170 181 181 186 196 217 227 226 227 231 222 207 219 225 222 211 214 203 202
293 289 296 299 295 286 288 289 288 295 259 230 212 205 207 207 191 186 178 170 162 162 165 168 175 176 185 193 207 215 213 221 222 220 206 194 203 199 213 202 181 181 182
298 295 296 294 292 291 292 287 285 281 266 216 214 204 204 196 181 178 164 161 162 162 168 171 171 177 186 197 199 202 210 219 203 183 166 172 182 186 192 177 172 179 175
298 296 294 294 294 297 294 282 275 265 215 192 195 197 195 177 168 167 156 158 164 166 168 172 173 176 183 189 184 184 187 183 177 171 166 163 174 182 187 186 178 175 182
296 301 301 303 301 295 279 273 261 225 198 169 180 169 166 154 150 152 156 161 165 167 168 173 176 177 177 177 172 164 159 161 166 167 163 164 169 157 139 140 157 166 181
294 298 297 295 290 300 281 265 223 203 170 165 170 160 154 152 156 156 160 164 164 169 175 177 180 177 177 181 179 176 173 175 181 167 165 165 158 149 152 152 153 156 157
302 302 295 290 283 291 280 175 173 183 168 173 170 155 156 156 159 162 161 163 168 176 178 178 185 186 186 179 171 179 185 179 183 170 165 164 164 158 160 155 158 155 156
309 300 294 291 274 269 211 226 164 145 149 156 154 156 157 161 159 162 158 161 163 153 136 125 126 152 164 159 166 167 167 172 178 179 163 166 163 164 166 168 174 175 171
Wind_Speed_850mb
21 22 20 17 18 15 38 41 52 57 57 59 68 84 93 100 100 90 78 67 63 62 52 50 49 51 46 43 44 43 43 41 38 35 35 34 35 36 37 40 38 37 39
34 36 34 29 27 28 22 39 48 54 68 71 66 72 87 99 98 94 82 75 84 73 61 49 50 53 51 46 47 42 41 39 37 36 33 34 38 38 35 37 40 40 43
60 49 45 44 39 39 38 30 32 49 64 71 78 81 83 92 92 93 93 85 80 72 59 51 52 59 55 51 48 42 39 38 36 34 31 13 18 10 19 25 28 34 36
35 37 36 35 40 45 42 39 38 36 42 66 75 83 88 92 97 110 100 84 79 68 53 55 58 60 58 56 51 43 38 38 39 38 42 48 32 12 7 18 25 24 17
37 42 41 41 40 44 47 47 47 46 45 42 64 81 89 91 81 99 98 92 84 64 54 59 63 61 63 56 52 47 42 39 41 41 40 43 46 44 43 37 31 30 23
37 40 44 47 51 50 50 49 52 56 54 50 49 68 80 89 90 94 99 98 83 62 61 64 62 61 63 61 53 47 43 39 40 35 39 42 40 41 45 42 38 33 28
47 48 60 68 68 65 54 52 52 60 63 60 51 56 76 79 82 91 102 106 88 71 69 68 60 57 57 53 45 44 41 41 36 35 35 35 34 32 34 32 28 23 25
55 59 66 68 73 74 56 52 52 59 60 66 60 57 59 80 92 89 93 98 81 69 66 60 52 47 41 43 40 40 39 38 38 33 31 31 31 32 28 25 20 22 20
67 69 65 65 73 73 54 46 48 58 59 66 66 62 56 60 73 69 65 69 66 70 66 54 47 36 36 38 38 39 36 36 35 31 31 26 24 25 26 24 20 21 17
79 68 55 65 65 58 44 49 41 52 59 63 67 64 60 52 56 58 57 61 69 73 62 52 43 37 38 40 38 36 32 33 34 35 29 26 24 26 27 23 22 23 19
71 49 53 59 63 57 50 50 42 46 56 60 66 66 68 58 62 63 62 64 65 57 53 52 46 43 43 42 31 35 35 33 36 33 29 25 26 28 26 23 24 22 19
52 40 47 56 59 68 49 51 48 51 45 55 63 68 72 68 68 70 70 66 59 53 50 51 49 47 45 37 40 39 35 33 33 30 28 27 29 29 25 24 23 21 20
47 41 47 58 65 66 56 48 64 58 41 45 59 63 73 72 74 72 68 62 58 52 53 51 51 49 43 40 40 36 35 31 27 25 25 27 30 28 26 24 24 23 22
48 58 54 54 66 64 73 56 62 62 38 43 56 57 67 68 71 71 65 60 54 54 54 51 50 46 38 41 39 36 31 27 25 23 23 27 28 28 27 28 25 24 26
56 44 54 62 67 66 77 70 59 63 42 36 45 43 55 62 59 57 57 52 51 50 49 50 50 46 47 38 36 31 29 28 25 23 23 26 27 28 29 29 28 28 29
48 46 64 74 70 68 79 77 59 62 41 26 28 40 45 48 50 52 49 47 48 51 52 51 52 54 47 36 32 29 29 27 25 26 26 30 31 32 34 33 31 27 30
41 52 66 76 71 63 68 78 64 60 36 26 23 37 43 46 46 46 46 48 51 53 54 56 56 52 40 35 32 30 25 24 26 30 30 29 29 29 26 32 34 31 31
52 71 75 85 71 69 68 71 55 55 26 26 34 44 46 42 43 46 56 55 57 59 60 57 49 43 39 34 31 24 23 25 27 24 23 19 25 23 27 30 35 32 31
83 83 81 80 72 65 53 50 49 45 22 30 46 50 46 44 47 58 60 63 65 66 57 52 43 39 36 33 24 23 23 22 19 18 19 23 24 27 27 24 26 36 35
78 73 81 78 68 56 44 51 46 39 30 34 50 51 49 50 56 64 69 61 67 58 57 47 41 37 31 26 23 22 21 19 17 15 17 23 22 20 21 26 28 33 34
75 73 70 67 62 50 47 49 45 40 31 35 55 54 54 60 64 66 67 69 67 58 50 47 41 32 25 22 24 21 18 14 14 16 18 23 25 22 18 21 21 20 25
72 69 71 66 54 43 45 48 51 32 8 55 57 56 58 63 73 68 73 69 60 56 52 43 36 28 25 23 19 17 15 14 15 20 19 21 23 20 16 22 28 25 23
72 74 67 60 50 38 39 39 34 30 13 53 54 64 62 70 72 75 73 67 59 51 44 37 32 30 29 23 19 20 17 17 18 22 25 20 18 23 29 26 25 23 23
70 71 66 58 47 29 22 35 32 34 24 44 55 66 75 72 68 67 64 61 52 42 37 33 30 31 29 25 25 24 20 18 23 28 30 28 31 31 30 29 21 16 13
73 65 61 55 49 29 29 22 34 36 40 60 85 80 76 76 72 67 61 46 35 29 25 24 22 28 29 26 23 19 23 24 25 32 39 37 38 38 32 27 18 17 16
65 59 52 46 42 39 35 42 39 42 45 72 82 82 78 70 65 60 54 38 31 26 21 23 16 23 17 25 21 16 22 28 31 33 42 40 42 36 31 23 17 14 15
Wind_Direction_850mb
324 327 329 310 310 293 250 247 262 261 257 262 252 240 238 235 234 236 247 247 256 258 256 262 268 267 275 282 284 280 272 267 260 261 256 249 254 259 253 248 255 260 261
313 317 310 300 292 293 287 245 244 255 259 257 260 258 248 242 238 243 251 254 260 254 255 263 272 273 275 277 281 277 272 266 256 257 261 263 265 262 255 251 260 264 265
309 308 304 301 292 286 289 278 256 240 245 257 259 256 251 248 249 255 264 256 256 250 260 269 274 273 274 273 273 269 267 267 260 253 243 236 236 230 244 249 266 270 268
312 316 317 309 295 287 285 284 277 268 259 243 246 250 252 251 254 256 259 256 259 256 262 271 268 271 273 272 265 257 257 255 250 246 240 242 249 256 255 262 274 269 270
309 316 320 318 315 301 292 286 282 274 272 268 250 245 244 251 253 251 251 257 258 258 257 260 261 267 271 267 261 253 251 246 246 244 242 240 245 252 261 269 265 271 281
315 318 329 331 326 310 301 291 283 272 267 269 264 251 248 245 249 245 246 255 253 251 256 255 260 267 270 261 255 245 244 246 246 237 241 244 248 253 257 257 270 277 272
321 327 331 330 324 323 301 296 288 276 266 264 268 254 244 243 245 248 248 249 249 248 251 254 261 270 270 254 236 239 238 247 229 227 239 244 247 255 256 259 258 256 268
315 322 330 331 330 321 300 294 291 284 275 264 265 260 242 240 242 248 250 252 248 245 251 255 259 267 251 229 228 233 234 233 224 226 228 238 243 241 245 250 250 255 261
319 324 328 335 333 323 302 296 296 286 279 267 262 259 245 241 241 244 243 247 239 243 247 251 258 246 224 222 229 233 214 221 220 224 226 235 232 230 243 247 249 250 267
316 321 325 333 332 322 306 300 297 290 280 270 257 255 243 240 239 234 233 231 235 241 244 240 244 225 221 223 226 204 210 219 215 218 221 226 228 234 239 241 244 252 250
317 322 327 328 334 325 314 306 307 298 276 267 254 249 235 229 235 233 233 235 241 245 238 232 232 222 220 225 222 202 218 210 211 212 220 227 231 235 235 230 238 244 240
321 320 332 327 327 330 318 322 328 318 285 263 250 241 227 226 227 234 239 240 244 241 230 228 222 217 221 220 199 207 210 205 206 217 226 231 232 229 225 224 236 234 235
335 327 322 325 323 327 319 324 332 324 288 257 249 233 221 221 226 233 240 246 238 224 215 217 213 214 217 200 198 210 196 202 212 223 230 233 228 223 226 227 235 229 228
315 313 313 314 324 309 322 310 324 330 295 257 236 221 220 222 226 232 237 225 212 209 209 207 208 211 198 194 201 188 194 203 210 216 223 225 226 231 236 234 234 228 223
316 301 307 312 314 312 312 310 310 326 308 254 227 212 215 215 214 214 206 203 203 204 202 204 200 191 186 190 187 197 203 199 206 218 225 227 231 233 234 231 228 223 217
304 307 317 315 310 316 302 306 303 320 308 248 230 215 197 199 194 193 197 197 196 201 199 194 184 180 181 180 185 189 196 210 224 234 237 238 237 236 235 229 217 220 221
293 310 308 309 302 291 297 303 305 319 297 235 220 206 186 182 188 196 194 191 191 190 186 177 178 174 180 181 187 198 210 227 237 244 245 241 237 234 234 227 217 211 212
292 307 300 303 296 293 293 300 313 311 282 219 200 188 185 187 194 194 182 183 185 176 172 169 173 179 179 187 192 202 221 236 240 238 236 222 222 226 230 225 224 209 205
289 296 293 296 296 290 296 306 303 302 273 223 204 203 201 199 196 191 186 180 170 166 162 166 170 181 181 186 196 217 227 226 227 231 222 207 219 225 222 211 214 203 202
293 289 296 299 295 286 288 289 288 295 259 230 212 205 207 207 191 186 178 170 162 162 165 168 175 176 185 193 207 215 213 221 222 220 206 194 203 199 213 202 181 181 182
298 295 296 294 292 291 292 287 285 281 266 216 214 204 204 196 181 178 164 161 162 162 168 171 171 177 186 197 199 202 210 219 203 183 166 172 182 186 192 177 172 179 175
298 296 294 294 294 297 294 282 275 265 215 192 195 197 195 177 168 167 156 158 164 166 168 172 173 176 183 189 184 184 187 183 177 171 166 163 174 182 187 186 178 175 182
296 301 301 303 301 295 279 273 261 225 198 169 180 169 166 154 150 152 156 161 165 167 168 173 176 177 177 177 172 164 159 161 166 167 163 164 169 157 139 140 157 166 181
294 298 297 295 290 300 281 265 223 203 170 165 170 160 154 152 156 156 160 164 164 169 175 177 180 177 177 181 179 176 173 175 181 167 165 165 158 149 152 152 153 156 157
302 302 295 290 283 291 280 175 173 183 168 173 170 155 156 156 159 162 161 163 168 176 178 178 185 186 186 179 171 179 185 179 183 170 165 164 164 158 160 155 158 155 156
309 300 294 291 274 269 211 226 164 145 149 156 154 156 157 161 159 162 158 161 163 153 136 125 126 152 164 159 166 167 167 172 178 179 163 166 163 164 166 168 174 175 171